Lexington Weather

Lexington, Massachusetts, USA

36°F
1/28/2020 6:38am 
  • Lexington Conditions: Overcast
  • Temperature: 35.8°F / 2.1°CColder 0.5°F than last hour.
  • Dew Point: 29.3°FDecreased 0.5°Fsince last hour.
  • Relative Humidity: 77
  • Wind: Wind from NW NW 1 mph, 10-min avg: 1 mph, gust: 3 mph
  • Barometer: 29.65 in Steady
  • Visibility: 10 miles
  • Rain Today: 0.00 in
  •   

Regional Weather Roundup
for Boston / Norton, MA

        
000
ASUS41 KBOX 251400
RWRBOX

REGIONAL WEATHER ROUNDUP
NATIONAL WEATHER SERVICE BOSTON/NORTON MA
900 AM EST SAT JAN 25 2020

NOTE:  "FAIR" INDICATES FEW OR NO CLOUDS BELOW 12,000 FEET WITH NO 
SIGNIFICANT WEATHER AND/OR OBSTRUCTIONS TO VISIBILITY.

MAZALL-251500-
EASTERN MASSACHUSETTS
  
CITY           SKY/WX    TMP DP  RH WIND       PRES   REMARKS
BOSTON         CLOUDY    43  35  73 E15       30.28S                  
BEVERLY        CLOUDY    41  33  73 VRB3      30.28S                  
LAWRENCE       CLOUDY    39  32  76 E8        30.30F                  
BEDFORD        CLOUDY    40  33  76 NE8       30.26F                  
BLUE HILL      NOT AVBL                                               
NORWOOD        CLOUDY    45  36  70 NE8       30.26F                  
MARSHFIELD     NOT AVBL                                               
PLYMOUTH       CLOUDY    42  38  85 E12       30.26S                  
TAUNTON        CLOUDY    41  37  86 E8        30.25S                  
NEW BEDFORD    CLOUDY    41  38  89 E10       30.24S                  
$$

MAZALL-251500-
CAPE COD AND THE ISLANDS
  
CITY           SKY/WX    TMP DP  RH WIND       PRES   REMARKS
FALMOUTH       CLOUDY    43  41  93 E12G20    30.25R                  
HYANNIS        NOT AVBL                                               
CHATHAM        CLOUDY    43  40  89 E12       30.26F                  
PROVINCETOWN   CLOUDY    43  39  86 E12G20    30.27F                  
NANTUCKET      CLOUDY    45  41  86 E17G29    30.23F                  
MARTHAS VNYRD  CLOUDY    43  40  89 E16G23    30.22S                  
$$
 
MAZALL-251500-
CENTRAL AND WESTERN MASSACHUSETTS
  
CITY           SKY/WX    TMP DP  RH WIND       PRES   REMARKS
WORCESTER      CLOUDY    35  31  85 NE9G23    30.22F WCI  28          
FITCHBURG      CLOUDY    37  31  78 E6        30.27F                  
ORANGE         CLOUDY    37  31  78 E3        30.24F                  
SPRINGFIELD    NOT AVBL                                               
WESTFIELD      CLOUDY    36  30  79 N9        30.22F WCI  29          
NORTH ADAMS    CLOUDY    36  28  73 E20G30    30.18F WCI  25          
PITTSFIELD     CLOUDY    35  29  78 E12G18    30.13F WCI  27          
$$
 
RIZALL-251500-
RHODE ISLAND
  
CITY           SKY/WX    TMP DP  RH WIND       PRES   REMARKS
PROVIDENCE     CLOUDY    40  37  89 E12       30.24F                  
NEWPORT        CLOUDY    42  38  85 E12       30.22S                  
BLOCK ISLAND   CLOUDY    41  39  93 E18G28    30.20F                  
SMITHFIELD     CLOUDY    39  37  92 E10       30.24S                  
WESTERLY       CLOUDY    44  37  76 NE14G23   30.21F                  
$$
 
CTZALL-251500-
CONNECTICUT
  
CITY           SKY/WX    TMP DP  RH WIND       PRES   REMARKS
BRADLEY INTL   CLOUDY    37  31  78 N12       30.21F WCI  29          
HARTFORD       CLOUDY    38  32  79 NE10      30.20F WCI  31          
BRIDGEPORT     CLOUDY    40  35  83 NE13      30.14F                  
DANBURY        CLOUDY    36  33  89 NE10      30.14F WCI  28          
GROTON         NOT AVBL                                               
NEW HAVEN      CLOUDY    42  36  79 NE8       30.16F                  
CHESTER        NOT AVBL                                               
MERIDEN        CLOUDY    37  32  82 N8        30.18F WCI  31          
WILLIMANTIC    CLOUDY    39  34  82 E12       30.22F WCI  32          
OXFORD         CLOUDY    36  33  89 NE18      30.13F WCI  26          
$$

MEZ002-015-021-024-NHZ003-005-008-011-012-014-VTZ005-008-251500-
NORTHERN NEW ENGLAND
  
CITY           SKY/WX    TMP DP  RH WIND       PRES   REMARKS
PORTLAND ME    CLOUDY    37  30  75 NE8       30.36S WCI  31          
BANGOR ME      CLOUDY    32  29  88 CALM      30.40S                  
CONCORD NH     CLOUDY    36  30  79 E8        30.29F WCI  30          
MANCHESTER NH  CLOUDY    38  31  76 E8        30.28F                  
NASHUA NH      CLOUDY    37  34  89 VRB3      30.29F                  
PORTSMOUTH NH  CLOUDY    38  31  74 E10       30.29F WCI  32          
JAFFREY NH     CLOUDY    36  30  79 VRB7      30.24F WCI  30          
KEENE NH       MIX PCPN  27  27 100 CALM      30.26F                  
BURLINGTON VT  PTSUNNY   29  24  82 S6        30.18F WCI  23          
MT. WASHINGTON NOT AVBL                                               
$$

NYZ052-076-251500-
EASTERN NEW YORK
  
CITY           SKY/WX    TMP DP  RH WIND       PRES   REMARKS
ALBANY         CLOUDY    28  22  78 CALM      30.19S                  
NEW YORK CITY  DRIZZLE   39  36  89 NE16      30.09F WCI  30          
$$
 
ANZALL-251500-
MARINE OBSERVATIONS
  
STATION/POSITION TIME  TEMP    WIND        PRES    VSBY  WAVE
                       AIR SEA DIR/SP/G                  HT/PER
                 (UTC) (F)     (DEG/KT/KT) (MB)    (MI)  (FT/S)
BOSTON BUOY      1250   42 43   70/ 17/ 19 1024.8          4/10
BUZZARDS BAY     1300   41      70/ 20/ 21 1023.7R
NANTUCKET SOUND  1340                        N/A
MASS BAY-STELLWA 1304   41 41  100/ 17/ 21 1023.7F  1 7/8
ISLE OF SHOALS   1300   39      80/ 19/ 21 1026.2F
S OF BLOCK IS    1330      45                N/A           6/ 6
$$

......................KEY.........................
  SKY/WX - SKY CONDITION/PRESENT WEATHER
  TMP    - TEMPERATURE IN FAHRENHEIT
  DWPT   - DEWPOINT IN FAHRENHEIT
  RH     - RELATIVE HUMIDITY IN PERCENT
  WIND   - DIRECTION AND SPEED IN MPH
  PRES   - MEAN SEA LEVEL PRESSURE IN INCHES OF HG
  WCI    - WIND CHILL INDEX
  VSB    - VISIBILITY IN MILES
  HX     - HEAT INDEX
  TC     - TEMPERATURE IN CELSIUS
  VRB    - VARIABLE WIND DIRECTION
  N/A    - NOT AVAILABLE
  
      

Other recent Regional Weather Roundups

Tue Jan 28, 6:10am

Tue Jan 28, 6:01am

Tue Jan 28, 5:10am

Tue Jan 28, 5:00am

Tue Jan 28, 4:10am

Tue Jan 28, 4:00am

Tue Jan 28, 3:10am

Tue Jan 28, 3:01am

Tue Jan 28, 2:10am

Tue Jan 28, 2:00am

Tue Jan 28, 1:10am

Tue Jan 28, 1:00am

Tue Jan 28, 12:10am

Tue Jan 28, 12:01am

Mon Jan 27, 11:10pm

Mon Jan 27, 11:00pm

Mon Jan 27, 10:10pm

Mon Jan 27, 10:00pm

Mon Jan 27, 9:10pm

Mon Jan 27, 9:00pm

Mon Jan 27, 8:10pm

Mon Jan 27, 8:01pm

Mon Jan 27, 7:10pm

Mon Jan 27, 7:00pm

Mon Jan 27, 6:10pm

Mon Jan 27, 6:00pm

Mon Jan 27, 5:10pm

Mon Jan 27, 5:00pm

Mon Jan 27, 4:10pm

Mon Jan 27, 4:00pm

Mon Jan 27, 3:10pm

Mon Jan 27, 3:00pm

Mon Jan 27, 2:10pm

Mon Jan 27, 2:00pm

Mon Jan 27, 1:10pm

Mon Jan 27, 1:00pm

Mon Jan 27, 12:10pm

Mon Jan 27, 12:00pm

Mon Jan 27, 11:10am

Mon Jan 27, 11:01am

Mon Jan 27, 10:10am

Mon Jan 27, 10:00am

Mon Jan 27, 9:10am

Mon Jan 27, 9:00am

Mon Jan 27, 8:10am

Mon Jan 27, 8:00am

Mon Jan 27, 7:10am

Mon Jan 27, 7:00am

Mon Jan 27, 6:10am

Mon Jan 27, 6:00am

Mon Jan 27, 5:10am

Mon Jan 27, 5:00am

Mon Jan 27, 4:10am

Mon Jan 27, 4:01am

Mon Jan 27, 3:10am

Mon Jan 27, 3:00am

Mon Jan 27, 2:10am

Mon Jan 27, 2:00am

Mon Jan 27, 1:10am

Mon Jan 27, 1:00am

Mon Jan 27, 12:10am

Mon Jan 27, 12:00am

Sun Jan 26, 11:10pm

Sun Jan 26, 11:00pm

Sun Jan 26, 10:10pm

Sun Jan 26, 10:00pm

Sun Jan 26, 9:10pm

Sun Jan 26, 9:01pm

Sun Jan 26, 8:10pm

Sun Jan 26, 8:00pm

Sun Jan 26, 7:10pm

Sun Jan 26, 7:00pm

Sun Jan 26, 6:10pm

Sun Jan 26, 6:01pm

Sun Jan 26, 5:10pm

Sun Jan 26, 5:01pm

Sun Jan 26, 4:10pm

Sun Jan 26, 4:00pm

Sun Jan 26, 3:10pm

Sun Jan 26, 3:01pm

Sun Jan 26, 2:10pm

Sun Jan 26, 2:01pm

Sun Jan 26, 1:10pm

Sun Jan 26, 1:00pm

Sun Jan 26, 12:10pm

Sun Jan 26, 12:00pm

Sun Jan 26, 11:10am

Sun Jan 26, 11:01am

Sun Jan 26, 10:10am

Sun Jan 26, 10:01am

Sun Jan 26, 9:10am

Sun Jan 26, 9:00am

Sun Jan 26, 8:10am

Sun Jan 26, 8:00am

Sun Jan 26, 7:10am

Sun Jan 26, 7:00am

Sun Jan 26, 6:10am

Sun Jan 26, 6:00am

Sun Jan 26, 5:10am

Sun Jan 26, 5:00am

Sun Jan 26, 4:10am

Sun Jan 26, 4:01am

Sun Jan 26, 3:10am

Sun Jan 26, 3:01am

Sun Jan 26, 2:10am

Sun Jan 26, 2:00am

Sun Jan 26, 1:10am

Sun Jan 26, 1:00am

Sun Jan 26, 12:10am

Sun Jan 26, 12:00am

Sat Jan 25, 11:10pm

Sat Jan 25, 11:00pm

Sat Jan 25, 10:10pm

Sat Jan 25, 10:01pm

Sat Jan 25, 9:10pm

Sat Jan 25, 9:01pm

Sat Jan 25, 8:10pm

Sat Jan 25, 8:01pm

Sat Jan 25, 7:10pm

Sat Jan 25, 7:01pm

Sat Jan 25, 6:10pm

Sat Jan 25, 6:01pm

Sat Jan 25, 5:10pm

Sat Jan 25, 5:01pm

Sat Jan 25, 4:10pm

Sat Jan 25, 4:00pm

Sat Jan 25, 3:10pm

Sat Jan 25, 3:01pm

Sat Jan 25, 2:10pm

Sat Jan 25, 2:00pm

Sat Jan 25, 1:10pm

Sat Jan 25, 1:00pm

Sat Jan 25, 12:10pm

Sat Jan 25, 12:00pm

Sat Jan 25, 11:10am

Sat Jan 25, 11:00am

Sat Jan 25, 10:10am

Sat Jan 25, 10:00am

Sat Jan 25, 9:10am

Sat Jan 25, 8:10am

Sat Jan 25, 8:01am

Sat Jan 25, 7:10am

Sat Jan 25, 7:00am

Meta data:

ID: 82f84aa5-9c8c-4f5f-b002-7bb9a4fc3f94
Link: https://api.weather.gov/products/82f84aa5-9c8c-4f5f-b002-7bb9a4fc3f94